This demonstration page uses our WeatherBlox Daily Observations layout. Learn more.

Left ArrowRight Arrow

Hourly Observations for October 1, 2022

Temp ( °F °C ) Dew Point ( °F °C ) Humidity (%) Winds ( mph kmh ) Pressure ( in mb ) Visibility ( mi km ) Precip ( " mm )
12:53 am 00:53 Clear 80 26.7 39 3.9 23 23 N 8 13 29.74 1007 10 16 0.00 0.00
1:53 am 01:53 Clear 77 25 40 4.4 26 26 N 6 9 29.74 1007 10 16 0.00 0.00
2:53 am 02:53 Clear 74 23.3 40 4.4 29 29 NNW 6 9 29.75 1008 10 16 0.00 0.00
3:53 am 03:53 Clear 71 21.7 41 5 34 34 NNW 5 7 29.75 1008 10 16 0.00 0.00
4:53 am 04:53 Clear 75 23.9 40 4.4 28 28 N 8 13 29.75 1008 10 16 0.00 0.00
5:53 am 05:53 Clear 75 23.9 39 3.9 27 27 N 7 11 29.76 1008 10 16 0.00 0.00
6:53 am 06:53 Clear 67 19.4 41 5 39 39 N 3 6 29.78 1008 10 16 0.00 0.00
7:53 am 07:53 Sunny 65 18.3 42 5.6 43 43 N 3 6 29.79 1009 10 16 0.00 0.00
8:53 am 08:53 Sunny 77 25 43 6.1 30 30 Calm 29.79 1009 10 16 0.00 0.00
9:53 am 09:53 Sunny 83 28.3 40 4.4 22 22 NNW 8 13 29.78 1009 10 16 0.00 0.00
10:53 am 10:53 Sunny 85 29.4 40 4.4 20 20 NNW 8 13 29.78 1009 10 16 0.00 0.00
11:53 am 11:53 Sunny 89 31.7 38 3.3 17 17 NNW 8 13 29.77 1008 10 16 0.00 0.00
12:53 pm 12:53 Sunny 90 32.2 38 3.3 16 16 VRB 6 9 29.75 1008 10 16 0.00 0.00
1:53 pm 13:53 Sunny 91 32.8 37 2.8 15 15 WNW 6 9 29.73 1007 10 16 0.00 0.00
2:53 pm 14:53 Sunny 93 33.9 35 1.7 13 13 VRB 6 9 29.71 1006 10 16 0.00 0.00
3:53 pm 15:53 Sunny 93 33.9 33 0.6 12 12 W 5 7 29.70 1006 10 16 0.00 0.00
4:53 pm 16:53 Sunny 93 33.9 32 0 12 12 WSW 6 9 29.69 1006 10 16 0.00 0.00
5:53 pm 17:53 Sunny 92 33.3 33 0.6 12 12 S 6 9 29.69 1006 10 16 0.00 0.00
6:53 pm 18:53 Clear 85 29.4 39 3.9 20 20 S 8 13 29.71 1006 10 16 0.00 0.00
7:53 pm 19:53 Clear 81 27.2 41 5 24 24 S 6 9 29.72 1006 10 16 0.00 0.00
8:53 pm 20:53 Clear 76 24.4 41 5 29 29 Calm 29.74 1007 10 16 0.00 0.00
9:53 pm 21:53 Clear 70 21.1 42 5.6 36 36 Calm 29.76 1008 10 16 0.00 0.00
10:53 pm 22:53 Clear 71 21.7 42 5.6 35 35 Calm 29.78 1008 10 16 0.00 0.00
11:53 pm 23:53 Clear 67 19.4 44 6.7 44 44 Calm 29.80 1009 10 16 0.00 0.00

Powered by AerisWeather